WB5OMR-9 Weather Reports


time (UTC)temp
F
wind
direction
speed
knots
gust
knots
rain 1hr
in
rain 24hr
in
rain mn
in
humidity
%
barometer
mb
20260903200305 107 135 0.0 0.0 0.00 0.00 0.00 34 1010.8
20260903195306 107 180 0.0 0.0 0.00 0.00 0.00 34 1010.8
20260903194303 108 157 0.0 0.0 0.00 0.00 0.00 34 1011.2
20260903193303 107 180 0.0 0.0 0.00 0.00 0.00 35 1011.2
20260903192219 106 202 0.0 0.0 0.00 0.00 0.00 35 1011.5
20260903191136 106 180 0.0 0.0 0.00 0.00 0.00 36 1011.9
20260903190135 106 247 0.0 0.0 0.00 0.00 0.00 36 1012.2
20260903185052 105 225 0.0 0.0 0.00 0.00 0.00 38 1012.2
20260903184051 105 247 0.0 0.0 0.00 0.00 0.00 39 1012.5
20260903183050 106 157 0.0 0.0 0.00 0.00 0.00 38 1012.5
20260903182048 105 270 0.0 0.0 0.00 0.00 0.00 39 1012.9
20260903181047 104 157 0.0 0.0 0.00 0.00 0.00 42 1013.2
20260903180046 103 135 0.0 0.0 0.00 0.00 0.00 43 1013.2
20260903175044 103 247 0.0 0.0 0.00 0.00 0.00 44 1013.2
20260903174043 102 225 0.0 0.0 0.00 0.00 0.00 46 1013.9
20260903173042 101 90 0.0 0.0 0.00 0.00 0.00 46 1013.9
20260903172041 101 202 0.0 0.0 0.00 0.00 0.00 47 1013.2
20260903171040 100 247 0.0 0.0 0.00 0.00 0.00 49 1012.9
20260903170039 99 157 0.0 0.0 0.00 0.00 0.00 50 1013.2
20260903165039 98 247 0.0 0.0 0.00 0.00 0.00 53 1013.5
20260903163956 97 247 0.0 0.0 0.00 0.00 0.00 55 1013.5
20260903162954 96 247 0.0 0.0 0.00 0.00 0.00 55 1013.9
20260903161953 95 247 0.0 0.0 0.00 0.00 0.00 58 1013.9
20260903160953 94 247 0.0 0.0 0.00 0.00 0.00 59 1013.5
20260903155952 93 247 0.0 0.0 0.00 0.00 0.00 61 1013.5
20260903154950 91 247 0.0 0.0 0.00 0.00 0.00 63 1013.5
20260903153907 90 135 0.0 0.0 0.00 0.00 0.00 67 1013.9
20260903152906 89 180 0.0 0.0 0.00 0.00 0.00 68 1013.9
20260903151905 88 157 0.0 0.0 0.00 0.00 0.00 70 1013.9
20260903150904 87 157 0.0 0.0 0.00 0.00 0.00 71 1013.9
20260903145903 87 135 0.0 0.0 0.00 0.00 0.00 73 1013.9
20260903144902 85 180 0.0 0.0 0.00 0.00 0.00 75 1013.9
20260903143901 85 180 0.0 0.0 0.00 0.00 0.00 75 1013.9
20260903142900 84 157 0.0 0.0 0.00 0.00 0.00 77 1013.9
20260903141859 84 180 0.0 0.0 0.00 0.00 0.00 77 1013.9
20260903140859 83 135 0.0 0.0 0.00 0.00 0.00 79 1014.2
20260903135857 83 135 0.0 0.0 0.00 0.00 0.00 80 1013.9
20260903134857 82 157 0.0 0.0 0.00 0.00 0.00 80 1014.2
20260903133856 82 135 0.0 0.0 0.00 0.00 0.00 81 1014.2
20260903132855 81 112 0.0 0.0 0.00 0.00 0.00 82 1014.2
20260903131854 81 157 0.0 0.0 0.00 0.00 0.00 82 1014.2
20260903130853 80 112 0.0 0.0 0.00 0.00 0.00 82 1014.2
20260903125852 80 112 0.0 0.0 0.00 0.00 0.00 82 1013.9
20260903124850 80 90 0.0 0.0 0.00 0.00 0.00 82 1013.9
20260903123849 80 112 0.0 0.0 0.00 0.00 0.00 82 1013.5
20260903122805 80 112 0.0 0.0 0.00 0.00 0.00 83 1013.5
20260903121804 80 135 0.0 0.0 0.00 0.00 0.00 83 1013.5
20260903120803 80 157 0.0 0.0 0.00 0.00 0.00 83 1013.5
20260903115802 80 135 0.0 0.0 0.00 0.00 0.00 82 1013.5
20260903114801 80 135 0.0 0.0 0.00 0.00 0.00 82 1013.2
20260903113800 80 135 0.0 0.0 0.00 0.00 0.00 82 1013.2
20260903112759 80 157 0.0 0.0 0.00 0.00 0.00 82 1013.5
20260903111758 80 135 0.0 0.0 0.00 0.00 0.00 82 1013.5
20260903110756 81 157 0.0 0.0 0.00 0.00 0.00 81 1013.5
20260903105756 81 135 0.0 0.0 0.00 0.00 0.00 81 1013.2
20260903104754 81 157 0.0 0.0 0.00 0.00 0.00 81 1013.5
20260903103753 81 135 0.0 0.0 0.00 0.00 0.00 81 1013.5
20260903102752 81 157 0.0 0.0 0.00 0.00 0.00 81 1013.2
20260903101750 81 180 0.0 0.0 0.00 0.00 0.00 81 1013.2
20260903100707 81 135 0.0 0.0 0.00 0.00 0.00 81 1013.2
20260903095624 81 157 0.0 0.0 0.00 0.00 0.00 80 1013.2
20260903094540 81 180 0.0 0.0 0.00 0.00 0.00 80 1013.2
20260903093539 81 135 0.0 0.0 0.00 0.00 0.00 80 1013.2
20260903092538 81 135 0.0 0.0 0.00 0.00 0.00 80 1013.2
20260903091537 82 135 0.0 0.0 0.00 0.00 0.00 80 1013.2
20260903090536 82 157 0.0 0.0 0.00 0.00 0.00 79 1013.2
20260903085535 82 112 0.0 0.0 0.00 0.00 0.00 79 1013.2
20260903084452 82 157 0.0 0.0 0.00 0.00 0.00 78 1013.2
20260903083409 82 157 0.0 0.0 0.00 0.00 0.00 78 1013.2
20260903082325 82 157 0.0 0.0 0.00 0.00 0.00 78 1013.2
20260903081324 82 157 0.0 0.0 0.00 0.00 0.00 76 1013.5
20260903080323 82 157 0.0 0.0 0.00 0.00 0.00 75 1013.5
20260903075322 82 135 0.0 0.0 0.00 0.00 0.00 74 1013.2
20260903074320 82 157 0.0 0.0 0.00 0.00 0.00 75 1013.2
20260903073318 83 135 0.0 0.0 0.00 0.00 0.00 73 1013.2
20260903072318 83 112 0.0 0.0 0.00 0.00 0.00 72 1013.2
20260903071317 83 157 0.0 0.0 0.00 0.00 0.00 72 1013.2
20260903070316 84 157 0.0 0.0 0.00 0.00 0.00 70 1013.2
20260903065315 84 135 0.0 0.0 0.00 0.00 0.00 69 1013.2
20260903064313 84 135 0.0 0.0 0.00 0.00 0.00 69 1013.2
20260903063312 84 157 0.0 0.0 0.00 0.00 0.00 68 1013.2
20260903062311 84 135 0.0 0.0 0.00 0.00 0.00 68 1013.5
20260903061310 85 157 0.0 0.0 0.00 0.00 0.00 67 1013.5
20260903060309 85 157 0.0 0.0 0.00 0.00 0.00 67 1013.5
20260903055307 86 157 0.0 0.0 0.00 0.00 0.00 66 1013.5
20260903054306 86 157 0.0 0.0 0.00 0.00 0.00 66 1013.5
20260903053305 86 135 0.0 0.0 0.00 0.00 0.00 65 1013.5
20260903052307 87 157 0.0 0.0 0.00 0.00 0.00 64 1013.5
20260903051303 87 90 0.0 0.0 0.00 0.00 0.00 63 1013.2
20260903050302 87 157 0.0 0.0 0.00 0.00 0.00 63 1013.2
20260903045300 88 157 0.0 0.0 0.00 0.00 0.00 62 1012.9
20260903044259 88 157 0.0 0.0 0.00 0.00 0.00 61 1012.9
20260903043258 89 157 0.0 0.0 0.00 0.00 0.00 59 1012.5
20260903042256 89 157 0.0 0.0 0.00 0.00 0.00 58 1012.5
20260903041255 89 112 0.0 0.0 0.00 0.00 0.00 57 1012.9
20260903040212 90 157 0.0 0.0 0.00 0.00 0.00 56 1013.2
20260903035129 90 135 0.0 0.0 0.00 0.00 0.00 55 1013.2
20260903034128 91 135 0.0 0.0 0.00 0.00 0.00 54 1013.2
20260903033044 91 135 0.0 0.0 0.00 0.00 0.00 50 1013.5
20260903032042 91 157 0.0 0.0 0.00 0.00 0.00 48 1012.9
20260903031041 91 112 0.0 0.0 0.00 0.00 0.00 46 1012.5
20260903030040 91 157 0.0 0.0 0.00 0.00 0.00 42 1012.5
20260903025038 91 135 0.0 0.0 0.00 0.00 0.00 41 1011.9
20260903024038 92 112 0.0 0.0 0.00 0.00 0.00 41 1011.9
20260903023036 92 112 0.0 0.0 0.00 0.00 0.00 41 1011.9
20260903022035 93 135 0.0 0.0 0.00 0.00 0.00 41 1011.5
20260903020952 93 135 0.0 0.0 0.00 0.00 0.00 39 1011.5
20260903015909 94 135 0.0 0.0 0.00 0.00 0.00 39 1011.5
20260903014908 95 135 0.0 0.0 0.00 0.00 0.00 38 1011.5
20260903013825 95 135 0.0 0.0 0.00 0.00 0.00 37 1011.2
20260903012742 96 135 0.0 0.0 0.00 0.00 0.00 37 1011.2
20260903011740 97 135 0.0 0.0 0.00 0.00 0.00 36 1011.2
20260903010739 98 112 0.0 0.0 0.00 0.00 0.00 36 1010.8
20260903005739 98 112 0.0 0.0 0.00 0.00 0.00 34 1011.2
20260903004737 99 135 0.0 0.0 0.00 0.00 0.00 35 1010.8
20260903003736 100 135 0.0 0.0 0.00 0.00 0.00 33 1011.2
20260903002735 101 157 0.0 0.0 0.00 0.00 0.00 33 1011.2
20260903001734 101 157 0.0 0.0 0.00 0.00 0.00 33 1011.2
20260903000733 102 112 0.0 0.0 0.00 0.00 0.00 32 1011.2
20260902235732 103 157 0.0 0.0 0.00 0.00 0.00 32 1011.2
20260902234731 103 157 0.0 0.0 0.00 0.00 0.00 31 1011.2
20260902233730 104 67 0.0 0.0 0.00 0.00 0.00 31 1011.2
20260902232729 105 247 0.0 0.0 0.00 0.00 0.00 30 1011.5
20260902231727 106 247 0.0 0.0 0.00 0.00 0.00 30 1011.2
20260902230727 106 112 0.0 0.0 0.00 0.00 0.00 30 1011.5
20260902225725 106 247 0.0 0.0 0.00 0.00 0.00 30 1011.5
20260902224724 106 247 0.0 0.0 0.00 0.00 0.00 29 1011.5
20260902223723 108 157 0.0 0.0 0.00 0.00 0.00 28 1011.5
20260902222639 108 247 0.0 0.0 0.00 0.00 0.00 28 1011.5
20260902221555 107 135 0.0 0.0 0.00 0.00 0.00 27 1011.5
20260902220511 108 135 0.0 0.0 0.00 0.00 0.00 28 1011.5
20260902215428 110 112 0.0 0.0 0.00 0.00 0.00 28 1011.5
20260902214427 111 247 0.0 0.0 0.00 0.00 0.00 27 1011.5
20260902213343 111 247 0.0 0.0 0.00 0.00 0.00 27 1011.9
20260902212342 112 180 0.0 0.0 0.00 0.00 0.00 26 1011.9
20260902211340 111 247 0.0 0.0 0.00 0.00 0.00 27 1011.9
20260902210257 111 247 0.0 0.0 0.00 0.00 0.00 27 1012.2
20260902205213 110 157 0.0 0.0 0.00 0.00 0.00 27 1012.2
20260902204129 110 157 0.0 0.0 0.00 0.00 0.00 27 1012.5
20260902203128 110 157 0.0 0.0 0.00 0.00 0.00 28 1012.5
20260902202045 111 112 0.0 0.0 0.00 0.00 0.00 29 1012.5
20260902201002 111 157 0.0 0.0 0.00 0.00 0.00 29 1012.9